x

South Hatteras - 225 South Of Cape Hatteras (41002) Wave Buoy

2:50pm - Mon 29th Aug 2016 All times are EDT. -4 hours from GMT.

  • Sig Wave height 4.3ft
  • Swell Direction
  • Peak Period 13s
  • Average Period 6s
  • Wind
    11mph
  • Sea Temp 85°f
  • 空気 Temp 83°f
  • Sea Pressure 1015.9mb
  • South Hatteras - 225 South Of Cape Hatteras
  • South Hatteras - 225 South Of Cape Hatteras

More Historic Weather Station data

Upgrade to MSW Pro to gain access to the past 30 days of data for over 8000 Wavebouys and Weather Stations around the globe.

Join Pro

Comparision Forecast

View Surf forecast
   
Mon 08/29 2:50pm 4.5ft 13s 6s 11
mph
1015.9mb 85f 83f
1:50pm 4.5ft 12s 6s 9 11 mph 1016.4mb 85f 83f
12:50pm 4.5ft 12s 6s 9 11 mph 1016.4mb 85f 83f
11:50am 4.5ft 13s 6s 11 13 mph 1016.5mb 84f 83f
10:50am 4.5ft 13s 6s 9 11 mph 1016.3mb 84f 82f
9:50am 5ft 13s 6s 7 9 mph 1016.3mb 84f 80f
8:50am 5ft 13s 6s 16 22 mph 1016.4mb 84f 82f
7:50am 5ft 13s 6s 13 16 mph 1016mb 84f 82f
6:50am 5.5ft 13s 6s 13 16 mph 1015.2mb 84f 80f
5:50am 6.5ft 8s 7s 13 16 mph 1015.2mb 84f 81f
4:50am 6ft 13s 7s 11 13 mph 1015.2mb 84f 82f
3:50am 7ft 13s 7s 9 11 mph 1015.1mb 84f 82f
2:50am 6.5ft 9s 7s 11 13 mph 1015.1mb 84f 82f
1:50am 6.5ft 8s 7s 11
mph
1015.5mb 84f 82f
12:50am 6ft 14s 7s 11 13 mph 1016.3mb 84f 83f
Sun 08/28 11:50pm 5ft 14s 6s 13 16 mph 1016.3mb 84f 83f
10:50pm 5ft 14s 6s 13 16 mph 1016.9mb 84f 83f
9:50pm 4.5ft 14s 6s 13 18 mph 1016.5mb 84f 83f
8:50pm 4.5ft 14s 6s 13 16 mph 1016.1mb 84f 83f
7:50pm 4.5ft 15s 6s 13 18 mph 1016.2mb 84f 83f
6:50pm 4ft 14s 6s 13 16 mph 1015.7mb 85f 83f
5:50pm 3.5ft 15s 6s 13 16 mph 1015.8mb 85f 83f
4:50pm 3.5ft 15s 6s 11 13 mph 1016.2mb 85f 83f
3:50pm 3.5ft 15s 6s 9 11 mph 1016.6mb 85f 83f
2:50pm 3.5ft 15s 6s 11
mph
1017mb 85f 83f
1:50pm 3ft 15s 6s 11
mph
1017.9mb 85f 83f
12:50pm 3ft 8s 5s 13 16 mph 1018mb 84f 82f
11:50am 3.5ft 8s 5s 9 11 mph 1018.5mb 84f 83f
10:50am 3ft 9s 5s 11 13 mph 1018.4mb 84f 83f
9:50am 3.5ft 7s 5s 11 13 mph 1018.1mb 84f 82f
8:50am 3.5ft 8s 5s 11 13 mph 1017.8mb 84f 82f
7:50am 3.5ft 8s 5s 13 16 mph 1017.6mb 84f 82f
6:50am 3.5ft 9s 5s 13 16 mph 1017.3mb 84f 82f
5:50am 3.5ft 8s 5s 13 16 mph 1016.5mb 84f 82f
4:50am 3.5ft 8s 5s 13 16 mph 1016.7mb 84f 82f
3:50am 3.5ft 8s 5s 16 18 mph 1016.6mb 84f 82f
2:50am 3.5ft 7s 5s 11 13 mph 1016.8mb 84f 83f
1:50am 3.5ft 8s 5s 11 16 mph 1017.1mb 84f 82f
12:50am 4ft 9s 5s 11 13 mph 1017.6mb 84f 81f
Sat 08/27 11:50pm 4ft 8s 5s 13 20 mph 1017.7mb 84f 81f
10:50pm 4.5ft 8s 5s 13 16 mph 1017.5mb 84f 82f
9:50pm 4.5ft 8s 5s 16 18 mph 1017mb 84f 83f
8:50pm 4.5ft 8s 5s 16 18 mph 1016.5mb 84f 83f
7:50pm 4.5ft 9s 5s 13 18 mph 1016.2mb 84f 83f
6:50pm 4.5ft 8s 5s 16 18 mph 1016mb 84f 83f
5:50pm 4.5ft 9s 5s 18 20 mph 1015.9mb 84f 83f
4:50pm 4.5ft 8s 5s 18 20 mph 1016mb 84f 83f
3:50pm 4.5ft 8s 5s 18 20 mph 1016mb 84f 83f
2:50pm 4.5ft 8s 5s 16 18 mph 1016.6mb 84f 82f
1:50pm 4.5ft 8s 5s 16 18 mph 1017.1mb 84f 82f
12:50pm 4.5ft 8s 5s 18 20 mph 1017.6mb 84f 82f
11:50am 4.5ft 9s 5s 18 20 mph 1017.8mb 84f 81f
10:50am 4ft 8s 5s 16 18 mph 1018.1mb 84f 83f
9:50am 4ft 9s 5s 16 20 mph 1018mb 84f 82f
8:50am 4ft 9s 6s 13 18 mph 1017.5mb 84f 82f
7:50am 3.5ft 9s 5s 13 16 mph 1017.4mb 84f 82f
6:50am 4ft 9s 6s 11 13 mph 1017mb 84f 82f
5:50am 4ft 10s 6s 11 16 mph 1016.6mb 84f 82f
4:50am 4.5ft 9s 6s 11 13 mph 1016.5mb 84f 82f
3:50am 4.5ft 9s 6s 9 11 mph 1016.7mb 84f 82f
2:50am 4.5ft 9s 6s 9 11 mph 1016.9mb 84f 82f
1:50am 4.5ft 10s 5s 11 13 mph 1016.9mb 84f 82f
12:50am 5ft 10s 6s 11 13 mph 1016.8mb 84f 82f
Fri 08/26 11:50pm 4.5ft 9s 6s 13 16 mph 1016.8mb 84f 82f
10:50pm 5ft 10s 6s 16 18 mph 1016.5mb 84f 82f
9:50pm 5ft 10s 6s 18 20 mph 1016.3mb 84f 82f
8:50pm 5.5ft 10s 6s 18 20 mph 1016.1mb 84f 82f
7:50pm 5.5ft 11s 6s 18 22 mph 1016.1mb 84f 82f
6:50pm 5ft 11s 5s 18 20 mph 1016.1mb 84f 82f
5:50pm 5.5ft 10s 5s 20 22 mph 1016mb 84f 83f
4:50pm 6.5ft 6s 6s 20 25 mph 1016mb 84f 83f
3:50pm 6ft 6s 5s 22 29 mph 1016.1mb 84f 82f
2:50pm 6.5ft 6s 5s 22 27 mph 1016.1mb 84f 82f
1:50pm 6ft 6s 5s 25 27 mph 1016.4mb 84f 82f
12:50pm 6ft 6s 5s 25 27 mph 1016.5mb 84f 82f
11:50am 4.5ft 5s 5s 25 31 mph 1016.9mb 84f 82f
10:50am 4ft 8s 5s 22 27 mph 1017mb 84f 82f
9:50am 3.5ft 7s 5s 18 20 mph 1017.1mb 84f 80f
8:50am 3.5ft 8s 5s 9 11 mph 1017.2mb 84f 79f
7:50am 3.5ft 8s 5s 11 13 mph 1017.2mb 84f 81f
6:50am 3.5ft 7s 5s 16 20 mph 1016.8mb 84f 80f
5:50am 3.5ft 7s 5s 16 20 mph 1016.5mb 84f 77f
4:50am 3.5ft 7s 5s 9 13 mph 1016.4mb 84f 81f
3:50am 3.5ft 6s 5s 7 11 mph 1016.5mb 84f 81f
2:50am 3.5ft 8s 5s 11 13 mph 1016.6mb 84f 81f
1:50am 4ft 8s 5s 11 16 mph 1016.8mb 84f 81f
12:50am 4ft 8s 5s 13 16 mph 1017.1mb 84f 81f
Thu 08/25 11:50pm 4ft 8s 5s 13 16 mph 1017.1mb 84f 82f
10:50pm 3.5ft 8s 5s 13 18 mph 1017.4mb 84f 81f
9:50pm 4.5ft 8s 5s 13 16 mph 1017.6mb 84f 82f
8:50pm 4ft 7s 5s 13 16 mph 1017.5mb 84f 82f